Location: Unspecified
(51.5147°N, 7.4673°E)
Time: 06:00:25
(UTC+01:00)

Transit 4A - Pass Details

Date: 18 February 2026
Orbit: 863 x 978 km, 66.8° (Epoch: 14 March)

Event Time Altitude Azimuth Distance (km) Brightness Sun altitude
Exits shadow 03:19:41 22° 94° (E) 1,847 9.8 -39.2°
Drops below altitude 10° 03:23:18 10° 58° (ENE) 2,596 10.9 -38.8°
Sets 03:26:20 0° 45° (NE) 3,563 11.9 -38.4°
